Location: Newark
(40.9833°N, 0.0333°W)
Time: 02:22:16
(UTC+00:00)

Transit 2A Rocket - Pass Details

Date: 28 October 2020
Orbit: 588 x 914 km, 66.7° (Epoch: 26 November)

Event Time Altitude Azimuth Distance (km) Brightness Sun altitude
Rises 09:01:30 0° 195° (SSW) 3,522 8.8 24.0°
Reaches altitude 10° 09:04:03 10° 192° (SSW) 2,593 8.3 24.3°
Maximum altitude 09:10:00 58° 114° (ESE) 1,056 6.8 25.1°
Drops below altitude 10° 09:15:50 10° 38° (NE) 2,548 7.7 25.8°
Sets 09:18:19 0° 34° (NE) 3,457 8.2 26.1°
